Location: ??????
(38.1303°N, 24.0039°E)
Time: 04:33:58
(UTC+00:00)

DELTA 2 R/B (1) - Visible Passes

Search period start: 17 October 2021 00:00
Search period end: 27 October 2021 00:00
Orbit: 790 x 802 km, 39.6° (Epoch: 16 October)

Date Brightness Start Highest point End Pass type
(mag) Time Alt. Az. Time Alt. Az. Time Alt. Az.
17 Oct 4.4 01:54:07 47° E 01:54:07 47° E 01:58:01 10° ESE visible
17 Oct 4.2 03:34:54 17° W 03:38:40 41° SSW 03:43:49 10° SE visible
18 Oct 5.6 01:25:04 23° E 01:25:04 23° E 01:27:04 10° E visible
18 Oct 4.0 03:05:51 32° WSW 03:07:45 44° SSW 03:12:58 10° SE visible
19 Oct 6.5 00:56:05 10° E 00:56:05 10° E 00:56:06 10° E visible
19 Oct 3.9 02:36:53 47° SSW 02:36:53 47° SSW 02:42:06 10° SE visible
20 Oct 4.7 02:07:59 33° SSE 02:07:59 33° SSE 02:11:14 10° SE visible
20 Oct 5.4 03:48:47 10° WSW 03:51:34 15° SW 03:54:29 10° S visible
21 Oct 5.8 01:39:09 17° SE 01:39:09 17° SE 01:40:21 10° SE visible
21 Oct 5.2 03:19:56 16° SW 03:20:41 16° SW 03:23:58 10° S visible
22 Oct 5.4 02:51:09 16° SSW 02:51:09 16° SSW 02:53:23 10° S visible
23 Oct 5.9 02:22:25 11° S 02:22:25 11° S 02:22:46 10° S visible
24 Oct 5.5 18:07:05 10° SSW 18:08:43 18° SSW 18:08:43 18° SSW visible
25 Oct 4.8 17:36:17 10° SSW 17:39:50 28° S 17:39:50 28° S visible
26 Oct 4.6 17:05:29 10° SSW 17:10:12 28° SSE 17:10:51 28° SE visible
26 Oct 6.0 18:50:38 10° WSW 18:51:38 16° WSW 18:51:38 16° WSW visible
